GLD1782 SBBW-SWEK

Flight info

Callsign GLD1782
Flight time 0h 37m
Altitude 9500
Route DCT 1440S05221W 1402S05218W DCT
Aircraft TBM8/L-SDFGIRY/S

Departure

Time 2026-05-08 20:12
Airport Barra do Garças Airport (SBBW)

Arrival

Time 2026-05-08 20:49
Airport Canarana Airport (SWEK)
Time Latitude Longitude Altitude Speed Heading
2026-05-08 19:52 -15.86032 -52.39289 1177 ft 0 kts 326°
2026-05-08 20:04 -15.86031 -52.39289 1177 ft 1 kts 324°
2026-05-08 20:05 -15.86039 -52.39292 1175 ft 5 kts 94°
2026-05-08 20:05 -15.86026 -52.39199 1174 ft 19 kts 81°
2026-05-08 20:05 -15.85971 -52.39077 1168 ft 17 kts 64°
2026-05-08 20:05 -15.85929 -52.38974 1162 ft 11 kts 74°
2026-05-08 20:06 -15.85931 -52.38951 1163 ft 5 kts 108°
2026-05-08 20:06 -15.85966 -52.38923 1160 ft 6 kts 192°
2026-05-08 20:06 -15.86000 -52.38952 1159 ft 6 kts 233°
2026-05-08 20:06 -15.86025 -52.38987 1160 ft 6 kts 233°
2026-05-08 20:07 -15.86047 -52.39016 1160 ft 5 kts 230°
2026-05-08 20:07 -15.86067 -52.39042 1161 ft 4 kts 232°
2026-05-08 20:07 -15.86085 -52.39066 1161 ft 4 kts 233°
2026-05-08 20:07 -15.86105 -52.39094 1161 ft 6 kts 230°
2026-05-08 20:08 -15.86143 -52.39144 1160 ft 12 kts 234°
2026-05-08 20:08 -15.86218 -52.39228 1159 ft 19 kts 196°
2026-05-08 20:08 -15.86288 -52.39205 1158 ft 0 kts 142°
2026-05-08 20:09 -15.86300 -52.39195 1159 ft 8 kts 139°
2026-05-08 20:09 -15.86351 -52.39172 1160 ft 17 kts 199°
2026-05-08 20:10 -15.86458 -52.39313 1158 ft 33 kts 232°
2026-05-08 20:10 -15.86593 -52.39433 1156 ft 5 kts 212°
2026-05-08 20:10 -15.86597 -52.39448 1155 ft 0 kts 304°
2026-05-08 20:10 -15.86564 -52.39439 1155 ft 14 kts 45°
2026-05-08 20:11 -15.86549 -52.39421 1155 ft 0 kts 49°
2026-05-08 20:11 -15.86449 -52.39298 1158 ft 51 kts 50°
2026-05-08 20:11 -15.86108 -52.38862 1164 ft 102 kts 51°
2026-05-08 20:11 -15.85634 -52.38227 1430 ft 118 kts 46°
2026-05-08 20:12 -15.85095 -52.37525 1850 ft 130 kts 47°
2026-05-08 20:12 -15.84361 -52.37013 2277 ft 134 kts
2026-05-08 20:12 -15.83490 -52.37377 2588 ft 143 kts 326°
2026-05-08 20:12 -15.82647 -52.38016 2865 ft 156 kts 323°
2026-05-08 20:13 -15.81699 -52.38596 3171 ft 162 kts 343°
2026-05-08 20:13 -15.80591 -52.38868 3507 ft 161 kts 346°
2026-05-08 20:13 -15.79540 -52.39116 3823 ft 154 kts 346°
2026-05-08 20:13 -15.78497 -52.39367 4152 ft 153 kts 346°
2026-05-08 20:14 -15.77433 -52.39637 4620 ft 157 kts 345°
2026-05-08 20:14 -15.76363 -52.39910 5112 ft 159 kts 345°
2026-05-08 20:14 -15.75269 -52.39999 5616 ft 160 kts
2026-05-08 20:14 -15.74147 -52.39933 6119 ft 162 kts
2026-05-08 20:15 -15.73032 -52.39889 6531 ft 162 kts
2026-05-08 20:15 -15.71892 -52.39838 6946 ft 164 kts
2026-05-08 20:15 -15.70750 -52.39784 7384 ft 164 kts
2026-05-08 20:15 -15.69599 -52.39730 7807 ft 166 kts
2026-05-08 20:16 -15.68455 -52.39678 8230 ft 167 kts
2026-05-08 20:16 -15.67277 -52.39623 8665 ft 169 kts
2026-05-08 20:16 -15.66109 -52.39568 9123 ft 169 kts
2026-05-08 20:16 -15.64907 -52.39514 9405 ft 180 kts
2026-05-08 20:17 -15.63589 -52.39450 9412 ft 201 kts
2026-05-08 20:17 -15.62131 -52.39378 9419 ft 216 kts
2026-05-08 20:17 -15.60598 -52.39307 9418 ft 226 kts
2026-05-08 20:17 -15.58981 -52.39235 9419 ft 235 kts
2026-05-08 20:18 -15.57335 -52.39161 9418 ft 243 kts
2026-05-08 20:18 -15.55621 -52.39081 9415 ft 247 kts
2026-05-08 20:18 -15.53884 -52.38999 9421 ft 250 kts
2026-05-08 20:18 -15.52150 -52.38920 9420 ft 252 kts
2026-05-08 20:19 -15.50391 -52.38838 9421 ft 253 kts
2026-05-08 20:19 -15.48622 -52.38757 9423 ft 254 kts
2026-05-08 20:19 -15.46867 -52.38676 9422 ft 255 kts
2026-05-08 20:19 -15.45095 -52.38595 9421 ft 255 kts
2026-05-08 20:20 -15.43315 -52.38513 9415 ft 255 kts
2026-05-08 20:20 -15.41539 -52.38431 9417 ft 255 kts
2026-05-08 20:20 -15.39788 -52.38350 9420 ft 254 kts
2026-05-08 20:20 -15.38005 -52.38269 9422 ft 255 kts
2026-05-08 20:21 -15.36231 -52.38190 9420 ft 255 kts
2026-05-08 20:21 -15.34480 -52.38109 9420 ft 255 kts
2026-05-08 20:21 -15.32706 -52.38026 9420 ft 256 kts
2026-05-08 20:21 -15.30923 -52.37944 9419 ft 256 kts
2026-05-08 20:22 -15.29145 -52.37810 9418 ft 256 kts
2026-05-08 20:22 -15.27371 -52.37634 9418 ft 256 kts
2026-05-08 20:22 -15.25592 -52.37479 9417 ft 256 kts
2026-05-08 20:22 -15.23815 -52.37335 9419 ft 256 kts
2026-05-08 20:23 -15.22034 -52.37184 9410 ft 256 kts
2026-05-08 20:23 -15.20279 -52.37035 9412 ft 256 kts
2026-05-08 20:23 -15.18497 -52.36884 9411 ft 256 kts
2026-05-08 20:23 -15.16717 -52.36734 9412 ft 256 kts
2026-05-08 20:24 -15.14951 -52.36584 9412 ft 256 kts
2026-05-08 20:24 -15.13169 -52.36434 9411 ft 256 kts
2026-05-08 20:24 -15.11391 -52.36283 9409 ft 256 kts
2026-05-08 20:24 -15.09635 -52.36134 9412 ft 256 kts
2026-05-08 20:25 -15.07863 -52.35984 9405 ft 256 kts
2026-05-08 20:25 -15.06088 -52.35835 9405 ft 256 kts
2026-05-08 20:25 -15.04307 -52.35685 9405 ft 256 kts
2026-05-08 20:25 -15.02547 -52.35535 9403 ft 256 kts
2026-05-08 20:26 -15.00762 -52.35385 9402 ft 256 kts
2026-05-08 20:26 -14.98999 -52.35236 9402 ft 256 kts
2026-05-08 20:26 -14.97218 -52.35085 9400 ft 256 kts
2026-05-08 20:26 -14.95428 -52.34934 9398 ft 256 kts
2026-05-08 20:27 -14.93650 -52.34785 9397 ft 256 kts
2026-05-08 20:27 -14.91890 -52.34635 9396 ft 256 kts
2026-05-08 20:27 -14.90109 -52.34485 9394 ft 256 kts
2026-05-08 20:27 -14.88327 -52.34335 9396 ft 256 kts
2026-05-08 20:28 -14.86572 -52.34186 9398 ft 256 kts
2026-05-08 20:28 -14.84793 -52.34037 9394 ft 256 kts
2026-05-08 20:28 -14.83017 -52.33888 9396 ft 256 kts
2026-05-08 20:28 -14.81239 -52.33737 9395 ft 256 kts
2026-05-08 20:29 -14.79479 -52.33588 9392 ft 256 kts
2026-05-08 20:29 -14.77695 -52.33438 9392 ft 256 kts
2026-05-08 20:29 -14.75918 -52.33289 9390 ft 256 kts
2026-05-08 20:29 -14.74141 -52.33138 9391 ft 256 kts
2026-05-08 20:30 -14.72366 -52.32989 9391 ft 256 kts
2026-05-08 20:30 -14.70612 -52.32840 9391 ft 256 kts
2026-05-08 20:30 -14.68838 -52.32693 9391 ft 256 kts
2026-05-08 20:30 -14.67062 -52.32542 9387 ft 255 kts
2026-05-08 20:31 -14.65286 -52.32393 9390 ft 255 kts
2026-05-08 20:31 -14.63530 -52.32245 9388 ft 255 kts
2026-05-08 20:31 -14.61758 -52.32095 9387 ft 255 kts
2026-05-08 20:31 -14.59979 -52.31947 9388 ft 255 kts
2026-05-08 20:32 -14.58229 -52.31798 9389 ft 255 kts
2026-05-08 20:32 -14.56452 -52.31650 9391 ft 255 kts
2026-05-08 20:32 -14.54682 -52.31500 9390 ft 255 kts
2026-05-08 20:32 -14.52910 -52.31353 9389 ft 255 kts
2026-05-08 20:33 -14.51135 -52.31203 9390 ft 255 kts
2026-05-08 20:33 -14.49387 -52.31055 9391 ft 255 kts
2026-05-08 20:33 -14.47614 -52.30908 9396 ft 255 kts
2026-05-08 20:33 -14.45841 -52.30758 9406 ft 254 kts
2026-05-08 20:34 -14.44068 -52.30609 9409 ft 254 kts
2026-05-08 20:34 -14.42324 -52.30463 9411 ft 254 kts
2026-05-08 20:34 -14.38798 -52.30179 9358 ft 256 kts
2026-05-08 20:35 -14.37008 -52.30051 9330 ft 256 kts
2026-05-08 20:35 -14.35212 -52.29959 9181 ft 261 kts
2026-05-08 20:35 -14.33406 -52.29834 9184 ft 258 kts
2026-05-08 20:35 -14.31626 -52.29713 9071 ft 260 kts
2026-05-08 20:36 -14.29804 -52.29625 8939 ft 262 kts
2026-05-08 20:36 -14.27974 -52.29523 8807 ft 264 kts
2026-05-08 20:36 -14.26138 -52.29402 8679 ft 264 kts
2026-05-08 20:36 -14.24306 -52.29273 8555 ft 264 kts
2026-05-08 20:37 -14.22467 -52.29138 8430 ft 264 kts
2026-05-08 20:37 -14.20646 -52.29003 8281 ft 265 kts
2026-05-08 20:37 -14.18793 -52.28885 8115 ft 265 kts
2026-05-08 20:37 -14.16959 -52.28774 8091 ft 261 kts
2026-05-08 20:38 -14.15181 -52.28664 8127 ft 256 kts
2026-05-08 20:38 -14.13400 -52.28539 8156 ft 253 kts
2026-05-08 20:38 -14.11633 -52.28428 8018 ft 255 kts
2026-05-08 20:38 -14.09899 -52.28289 7806 ft 250 kts
2026-05-08 20:39 -14.08163 -52.28102 7546 ft 249 kts
2026-05-08 20:39 -14.06455 -52.27803 7291 ft 249 kts 10°
2026-05-08 20:39 -14.04778 -52.27458 7143 ft 244 kts 12°
2026-05-08 20:39 -14.03140 -52.27131 7143 ft 237 kts 10°
2026-05-08 20:40 -14.01528 -52.26828 7024 ft 237 kts
2026-05-08 20:40 -14.00979 -52.26727 6996 ft 236 kts
2026-05-08 20:40 -13.98330 -52.26301 6986 ft 230 kts
2026-05-08 20:40 -13.96740 -52.26134 6846 ft 233 kts
2026-05-08 20:41 -13.95122 -52.25949 6755 ft 233 kts
2026-05-08 20:41 -13.93512 -52.25736 6634 ft 234 kts
2026-05-08 20:41 -13.91924 -52.25431 6542 ft 233 kts 11°
2026-05-08 20:41 -13.90333 -52.25075 6393 ft 234 kts 12°
2026-05-08 20:42 -13.88737 -52.24697 6286 ft 234 kts 12°
2026-05-08 20:42 -13.87160 -52.24383 6171 ft 234 kts
2026-05-08 20:42 -13.85552 -52.24109 6034 ft 234 kts 10°
2026-05-08 20:42 -13.83972 -52.23744 5989 ft 230 kts 12°
2026-05-08 20:43 -13.82405 -52.23369 5828 ft 232 kts 12°
2026-05-08 20:43 -13.80893 -52.22976 5598 ft 222 kts 14°
2026-05-08 20:43 -13.79416 -52.22547 5367 ft 215 kts 15°
2026-05-08 20:43 -13.78038 -52.22127 5394 ft 203 kts 15°
2026-05-08 20:44 -13.76688 -52.21691 5280 ft 202 kts 16°
2026-05-08 20:44 -13.75298 -52.21555 5164 ft 201 kts 350°
2026-05-08 20:44 -13.73932 -52.21903 4888 ft 207 kts 346°
2026-05-08 20:44 -13.72507 -52.22241 4574 ft 211 kts 348°
2026-05-08 20:45 -13.71082 -52.22537 4401 ft 207 kts 350°
2026-05-08 20:45 -13.70135 -52.22708 4212 ft 208 kts 352°
2026-05-08 20:45 -13.68272 -52.23023 3763 ft 192 kts 351°
2026-05-08 20:45 -13.67014 -52.23350 3255 ft 182 kts 345°
2026-05-08 20:46 -13.65873 -52.23819 2947 ft 169 kts 340°
2026-05-08 20:46 -13.64817 -52.24290 2691 ft 162 kts 339°
2026-05-08 20:46 -13.63797 -52.24760 2422 ft 159 kts 340°
2026-05-08 20:46 -13.62792 -52.25106 2243 ft 146 kts 347°
2026-05-08 20:47 -13.61870 -52.25394 2081 ft 130 kts 346°
2026-05-08 20:47 -13.61056 -52.25675 1936 ft 120 kts 346°
2026-05-08 20:47 -13.60356 -52.25912 1800 ft 91 kts 343°
2026-05-08 20:47 -13.59745 -52.26142 1688 ft 94 kts 343°
2026-05-08 20:48 -13.59134 -52.26348 1579 ft 91 kts 341°
2026-05-08 20:48 -13.58524 -52.26567 1520 ft 96 kts 341°
2026-05-08 20:48 -13.57867 -52.26744 1361 ft 95 kts 346°
2026-05-08 20:48 -13.57312 -52.26916 1306 ft 63 kts 340°
2026-05-08 20:49 -13.57160 -52.26975 1305 ft 4 kts 339°
2026-05-08 20:49 -13.57138 -52.27002 1304 ft 9 kts 180°
2026-05-08 20:49 -13.57198 -52.26992 1305 ft 7 kts 207°
2026-05-08 20:49 -13.57220 -52.27026 1305 ft 4 kts 94°
2026-05-08 20:50 -13.57219 -52.27022 1305 ft 0 kts 46°